This demonstration page uses our WeatherBlox Daily Observations layout. Learn more.

40.92945, -100.16068

Hourly Observations for June 13, 2018

Temp ( °F °C ) Dew Point ( °F °C ) Humidity (%) Winds ( mph kmh ) Pressure ( in mb ) Visibility ( mi km ) Precip ( " mm )
12:15 am 00:15 Clear 67 19.5 61 16.2 81 81 ENE 8 13 30 1016 10 16.0934 0 0
12:35 am 00:35 Clear 66 19 61 16.1 83 83 ENE 9 15 30 1016 10 16.0934 0 0
12:55 am 00:55 Clear 65 18.5 60 15.8 84 84 ENE 9 15 30 1016 10 16.0934 0 0
1:15 am 01:15 Clear 65 18.2 60 15.7 85 85 E 8 13 30 1016 10 16.0934 0 0
1:35 am 01:35 Clear 65 18.1 60 15.6 85 85 E 7 11 30 1016 10 16.0934 0 0
1:55 am 01:55 Clear 64 17.5 60 15.4 88 88 ENE 8 13 29.97 1015 10 16.0934 0 0
2:15 am 02:15 Clear 64 17.5 59 15.2 86 86 E 7 11 30 1016 10 16.0934 0 0
2:35 am 02:35 Clear 63 17.3 59 15.1 87 87 E 6 9 30 1016 10 16.0934 0 0
2:55 am 02:55 Clear 62 16.7 59 14.8 89 89 E 6 9 30.03 1017 10 16.0934 0 0
3:15 am 03:15 Clear 62 16.6 58 14.7 89 89 E 7 11 30.03 1017 10 16.0934 0 0
3:35 am 03:35 Clear 62 16.4 58 14.7 90 90 ENE 8 13 30 1016 10 16.0934 0 0
3:55 am 03:55 Clear 61 16.3 58 14.6 90 90 E 6 9 30 1016 10 16.0934 0 0
4:15 am 04:15 Clear 61 16.3 58 14.3 88 88 E 6 9 30 1016 10 16.0934 0 0
4:35 am 04:35 Clear 61 16.2 58 14.4 89 89 E 7 11 30 1016 10 16.0934 0 0
4:55 am 04:55 Partly Cloudy 61 16.1 57 14.1 88 88 E 5 7 30.03 1017 10 16.0934 0 0
5:15 am 05:15 Partly Cloudy 61 16 57 14 88 88 E 5 7 30.03 1017 10 16.0934 0 0
5:35 am 05:35 Partly Cloudy 60 15.7 57 13.8 89 89 E 5 7 30.03 1017 10 16.0934 0 0
5:55 am 05:55 Clear 60 15.6 56 13.6 88 88 E 6 9 30.03 1017 10 16.0934 0 0
6:15 am 06:15 Partly Cloudy 60 15.7 57 14 90 90 E 6 9 30.03 1017 10 16.0934 0 0
6:35 am 06:35 Mostly Cloudy 62 16.5 57 14.1 86 86 E 6 9 30.06 1018 10 16.0934 0 0
6:55 am 06:55 Cloudy 62 16.7 57 14 84 84 ESE 3 6 30.06 1018 10 16.0934 0 0
7:15 am 07:15 Cloudy 62 16.8 57 14.1 84 84 E 5 7 30.06 1018 10 16.0934 0 0
7:35 am 07:35 Partly Cloudy 63 17 57 13.9 82 82 ESE 8 13 30.03 1017 10 16.0934 0 0
7:55 am 07:55 Sunny 63 17.4 57 13.7 79 79 ESE 10 17 29.97 1015 10 16.0934 0 0
8:15 am 08:15 Sunny 64 18 57 13.7 76 76 ESE 12 19 29.97 1015 10 16.0934 0 0
8:35 am 08:35 Sunny 65 18.5 56 13.1 71 71 ESE 8 13 30 1016 10 16.0934 0 0
8:55 am 08:55 Sunny 66 18.8 56 13.2 70 70 SE 13 20 30 1016 10 16.0934 0 0
9:15 am 09:15 Partly Cloudy with Thunderstorms 67 19.2 56 13.5 70 70 SE 9 15 30.03 1017 10 16.0934 0 0
9:35 am 09:35 Mostly Cloudy with Nearby Thunderstorms 68 19.9 57 13.8 68 68 SE 12 19 30 1016 10 16.0934 0 0
9:55 am 09:55 Mostly Cloudy 69 20.5 57 14 66 66 SE 15 24 29.97 1015 10 16.0934 0 0
10:15 am 10:15 Mostly Cloudy 70 21.2 57 14 64 64 SE 10 17 29.97 1015 10 16.0934 0 0
10:35 am 10:35 Cloudy 70 20.9 56 13.6 63 63 SE 13 20 29.97 1015 10 16.0934 0 0
10:55 am 10:55 Cloudy 71 21.5 58 14.2 63 63 ESE 15 24 29.94 1014 10 16.0934 0 0
11:15 am 11:15 Cloudy 71 21.6 57 14 62 62 ESE 15 24 29.94 1014 10 16.0934 0 0
11:35 am 11:35 Cloudy 71 21.7 56 13.6 60 60 SE 16 26 29.97 1015 10 16.0934 0 0
11:55 am 11:55 Cloudy 74 23.1 58 14.3 58 58 SE 15 24 29.97 1015 10 16.0934 0 0
12:15 pm 12:15 Cloudy 76 24.2 58 14.4 54 54 SSE 14 22 29.94 1014 10 16.0934 0 0
12:35 pm 12:35 Cloudy 78 25.6 54 12.3 44 44 SSE 21 33 29.94 1014 10 16.0934 0 0
12:55 pm 12:55 Cloudy 76 24.5 57 14.1 52 52 SSE 18 30 29.91 1013 10 16.0934 0 0
1:15 pm 13:15 Mostly Cloudy 79 25.9 60 15.5 53 53 SSE 17 28 29.91 1013 10 16.0934 0 0
1:35 pm 13:35 Partly Cloudy 80 26.5 60 15.6 51 51 SE 17 28 29.91 1013 10 16.0934 0 0
1:55 pm 13:55 Sunny 81 27.1 60 15.7 50 50 SE 18 30 29.91 1013 10 16.0934 0 0
2:15 pm 14:15 Sunny 83 28.3 62 16.4 48 48 SSE 17 28 29.88 1012 10 16.0934 0 0
2:35 pm 14:35 Sunny 82 27.7 62 16.7 51 51 SE 16 26 29.85 1011 10 16.0934 0 0
2:55 pm 14:55 Sunny 83 28.2 62 16.8 50 50 SE 17 28 29.85 1011 10 16.0934 0 0
3:15 pm 15:15 Sunny 83 28.2 62 16.6 49 49 SE 17 28 29.83 1010 10 16.0934 0 0
3:35 pm 15:35 Sunny 84 28.7 61 16.3 47 47 SE 18 30 29.83 1010 10 16.0934 0 0
3:55 pm 15:55 Sunny 85 29.4 61 16.3 45 45 SSE 17 28 29.8 1009 10 16.0934 0 0
4:15 pm 16:15 Sunny 85 29.5 60 15.8 43 43 SE 16 26 29.8 1009 10 16.0934 0 0
4:35 pm 16:35 Sunny 86 29.8 60 15.7 42 42 SSE 17 28 29.8 1009 10 16.0934 0 0
4:55 pm 16:55 Sunny 86 30 61 15.9 42 42 SSE 18 30 29.74 1007 10 16.0934 0 0
5:15 pm 17:15 Sunny 87 30.3 60 15.5 41 41 S 21 33 29.74 1007 10 16.0934 0 0
5:35 pm 17:35 Sunny 86 30.1 60 15.4 41 41 S 18 30 29.74 1007 10 16.0934 0 0
5:55 pm 17:55 Sunny 86 29.9 62 16.4 44 44 SSE 18 30 29.74 1007 10 16.0934 0 0
6:15 pm 18:15 Sunny 85 29.5 62 16.6 46 46 SE 13 20 29.77 1008 10 16.0934 0 0
6:35 pm 18:35 Sunny 85 29.2 62 16.9 47 47 SE 15 24 29.77 1008 10 16.0934 0 0
6:55 pm 18:55 Sunny 84 28.9 60 15.7 45 45 SE 17 28 29.77 1008 10 16.0934 0 0
7:15 pm 19:15 Sunny 84 28.7 62 16.6 48 48 SSE 16 26 29.77 1008 10 16.0934 0 0
7:35 pm 19:35 Sunny 83 28.3 62 16.5 49 49 SSE 17 28 29.77 1008 10 16.0934 0 0
7:55 pm 19:55 Sunny 81 27.2 62 16.6 52 52 SSE 16 26 29.77 1008 10 16.0934 0 0
8:15 pm 20:15 Sunny 81 27.2 63 17 54 54 SSE 15 24 29.74 1007 10 16.0934 0 0
8:35 pm 20:35 Sunny 80 26.5 64 17.5 58 58 SSE 15 24 29.74 1007 10 16.0934 0 0
8:55 pm 20:55 Sunny 79 26.1 63 17.4 59 59 SE 13 20 29.74 1007 10 16.0934 0 0
9:15 pm 21:15 Clear 78 25.6 65 18.5 65 65 SE 15 24 29.77 1008 10 16.0934 0 0
9:35 pm 21:35 Clear 77 24.8 66 18.7 69 69 SE 14 22 29.8 1009 10 16.0934 0 0
9:55 pm 21:55 Clear 76 24.2 66 18.8 72 72 SE 14 22 29.8 1009 10 16.0934 0 0
10:15 pm 22:15 Clear 74 23.6 66 18.8 75 75 SE 15 24 29.8 1009 10 16.0934 0 0
10:35 pm 22:35 Clear 74 23.3 66 19 77 77 SE 13 20 29.8 1009 10 16.0934 0 0
10:55 pm 22:55 Clear 73 23 66 19 78 78 SE 15 24 29.8 1009 10 16.0934 0 0
11:15 pm 23:15 Clear 73 22.8 66 19 79 79 SE 13 20 29.8 1009 10 16.0934 0 0
11:35 pm 23:35 Clear 73 22.7 66 18.8 79 79 SE 12 19 29.8 1009 10 16.0934 0 0
11:55 pm 23:55 Clear 73 22.5 66 18.9 80 80 SE 13 20 29.8 1009 10 16.0934 0 0

Powered by AerisWeather